owner,sensor,date,latitude,longitude,air_temperature,qcFlag 
DISL,ioos:station:DISL:DISL:1,2010-02-01T00:00:00Z,30.2513,-88.0778,8.69,1111122 
DISL,ioos:station:DISL:DISL:1,2010-02-01T00:30:00Z,30.2513,-88.0778,8.75,1111122 
DISL,ioos:station:DISL:DISL:1,2010-02-01T01:00:00Z,30.2513,-88.0778,8.52,1111122 
DISL,ioos:station:DISL:DISL:1,2010-02-01T01:30:00Z,30.2513,-88.0778,8.24,1111122 
DISL,ioos:station:DISL:DISL:1,2010-02-01T02:00:00Z,30.2513,-88.0778,8.64,1111122 
DISL,ioos:station:DISL:DISL:1,2010-02-01T02:30:00Z,30.2513,-88.0778,8.18,1111122 
DISL,ioos:station:DISL:DISL:1,2010-02-01T03:00:00Z,30.2513,-88.0778,7.71,1111122 
DISL,ioos:station:DISL:DISL:1,2010-02-01T03:30:00Z,30.2513,-88.0778,7.82,1111122 
DISL,ioos:station:DISL:DISL:1,2010-02-01T04:00:00Z,30.2513,-88.0778,7.48,1111122 
DISL,ioos:station:DISL:DISL:1,2010-02-01T04:30:00Z,30.2513,-88.0778,7.34,1111122 
DISL,ioos:station:DISL:DISL:1,2010-02-01T05:00:00Z,30.2513,-88.0778,7.09,1111122 
DISL,ioos:station:DISL:DISL:1,2010-02-01T05:30:00Z,30.2513,-88.0778,7.32,1111122 
DISL,ioos:station:DISL:DISL:1,2010-02-01T06:00:00Z,30.2513,-88.0778,7.11,1111122 
DISL,ioos:station:DISL:DISL:1,2010-02-01T06:30:00Z,30.2513,-88.0778,6.835,1111122 
DISL,ioos:station:DISL:DISL:1,2010-02-01T07:00:00Z,30.2513,-88.0778,6.518,1111122 
DISL,ioos:station:DISL:DISL:1,2010-02-01T07:30:00Z,30.2513,-88.0778,6.479,1111122 
DISL,ioos:station:DISL:DISL:1,2010-02-01T08:00:00Z,30.2513,-88.0778,6.575,1111122 
DISL,ioos:station:DISL:DISL:1,2010-02-01T08:30:00Z,30.2513,-88.0778,6.999,1111122 
DISL,ioos:station:DISL:DISL:1,2010-02-01T09:00:00Z,30.2513,-88.0778,6.653,1111122 
DISL,ioos:station:DISL:DISL:1,2010-02-01T09:30:00Z,30.2513,-88.0778,5.99,1111122 
DISL,ioos:station:DISL:DISL:1,2010-02-01T10:00:00Z,30.2513,-88.0778,6.019,1111122 
DISL,ioos:station:DISL:DISL:1,2010-02-01T10:30:00Z,30.2513,-88.0778,6.123,1111122 
DISL,ioos:station:DISL:DISL:1,2010-02-01T11:00:00Z,30.2513,-88.0778,6.364,1111122 
DISL,ioos:station:DISL:DISL:1,2010-02-01T11:30:00Z,30.2513,-88.0778,5.894,1111122 
DISL,ioos:station:DISL:DISL:1,2010-02-01T12:00:00Z,30.2513,-88.0778,5.453,1111122 
DISL,ioos:station:DISL:DISL:1,2010-02-01T12:30:00Z,30.2513,-88.0778,5.836,1111122 
DISL,ioos:station:DISL:DISL:1,2010-02-01T13:00:00Z,30.2513,-88.0778,5.932,1111122 
DISL,ioos:station:DISL:DISL:1,2010-02-01T13:30:00Z,30.2513,-88.0778,6.355,1111122 
DISL,ioos:station:DISL:DISL:1,2010-02-01T14:00:00Z,30.2513,-88.0778,6.239,1111122 
DISL,ioos:station:DISL:DISL:1,2010-02-01T14:30:00Z,30.2513,-88.0778,6.576,1111122 
DISL,ioos:station:DISL:DISL:1,2010-02-01T15:00:00Z,30.2513,-88.0778,7.07,1111122 
DISL,ioos:station:DISL:DISL:1,2010-02-01T15:30:00Z,30.2513,-88.0778,7.64,1111122 
DISL,ioos:station:DISL:DISL:1,2010-02-01T16:00:00Z,30.2513,-88.0778,8.06,1111122 
DISL,ioos:station:DISL:DISL:1,2010-02-01T16:30:00Z,30.2513,-88.0778,8.16,1111122 
DISL,ioos:station:DISL:DISL:1,2010-02-01T17:00:00Z,30.2513,-88.0778,8.31,1111122 
DISL,ioos:station:DISL:DISL:1,2010-02-01T17:30:00Z,30.2513,-88.0778,8.76,1111122 
DISL,ioos:station:DISL:DISL:1,2010-02-01T18:00:00Z,30.2513,-88.0778,9.22,1111122 
DISL,ioos:station:DISL:DISL:1,2010-02-01T18:30:00Z,30.2513,-88.0778,9.29,1111122 
DISL,ioos:station:DISL:DISL:1,2010-02-01T19:00:00Z,30.2513,-88.0778,9.23,1111122 
DISL,ioos:station:DISL:DISL:1,2010-02-01T19:30:00Z,30.2513,-88.0778,9.59,1111122 
DISL,ioos:station:DISL:DISL:1,2010-02-01T20:00:00Z,30.2513,-88.0778,10.1,1111122 
DISL,ioos:station:DISL:DISL:1,2010-02-01T20:30:00Z,30.2513,-88.0778,10.16,1111122 
DISL,ioos:station:DISL:DISL:1,2010-02-01T21:00:00Z,30.2513,-88.0778,10.36,1111122 
DISL,ioos:station:DISL:DISL:1,2010-02-01T21:30:00Z,30.2513,-88.0778,10.99,1111122 
DISL,ioos:station:DISL:DISL:1,2010-02-01T22:00:00Z,30.2513,-88.0778,10.81,1111122 
DISL,ioos:station:DISL:DISL:1,2010-02-01T22:30:00Z,30.2513,-88.0778,10.96,1111122 
DISL,ioos:station:DISL:DISL:1,2010-02-01T23:00:00Z,30.2513,-88.0778,11.02,1111122 
DISL,ioos:station:DISL:DISL:1,2010-02-01T23:30:00Z,30.2513,-88.0778,10.97,1111122 
DISL,ioos:station:DISL:DISL:1,2010-02-02T00:00:00Z,30.2513,-88.0778,11.11,1111122 
DISL,ioos:station:DISL:DISL:1,2010-02-02T00:30:00Z,30.2513,-88.0778,11.12,1111122 
DISL,ioos:station:DISL:DISL:1,2010-02-02T01:00:00Z,30.2513,-88.0778,11.2,1111122 
DISL,ioos:station:DISL:DISL:1,2010-02-02T01:30:00Z,30.2513,-88.0778,11.06,1111122 
DISL,ioos:station:DISL:DISL:1,2010-02-02T02:00:00Z,30.2513,-88.0778,11.02,1111122 
DISL,ioos:station:DISL:DISL:1,2010-02-02T02:30:00Z,30.2513,-88.0778,10.83,1111122 
DISL,ioos:station:DISL:DISL:1,2010-02-02T03:00:00Z,30.2513,-88.0778,10.68,1111122 
DISL,ioos:station:DISL:DISL:1,2010-02-02T03:30:00Z,30.2513,-88.0778,10.52,1111122 
DISL,ioos:station:DISL:DISL:1,2010-02-02T04:00:00Z,30.2513,-88.0778,10.17,1111122 
DISL,ioos:station:DISL:DISL:1,2010-02-02T04:30:00Z,30.2513,-88.0778,10.0,1111122 
DISL,ioos:station:DISL:DISL:1,2010-02-02T05:00:00Z,30.2513,-88.0778,9.95,1111122 
DISL,ioos:station:DISL:DISL:1,2010-02-02T05:30:00Z,30.2513,-88.0778,9.76,1111122 
DISL,ioos:station:DISL:DISL:1,2010-02-02T06:00:00Z,30.2513,-88.0778,9.64,1111122 
DISL,ioos:station:DISL:DISL:1,2010-02-02T06:30:00Z,30.2513,-88.0778,9.66,1111122 
DISL,ioos:station:DISL:DISL:1,2010-02-02T07:00:00Z,30.2513,-88.0778,9.59,1111122 
DISL,ioos:station:DISL:DISL:1,2010-02-02T07:30:00Z,30.2513,-88.0778,9.39,1111122 
DISL,ioos:station:DISL:DISL:1,2010-02-02T08:00:00Z,30.2513,-88.0778,9.5,1111122 
DISL,ioos:station:DISL:DISL:1,2010-02-02T08:30:00Z,30.2513,-88.0778,9.49,1111122 
DISL,ioos:station:DISL:DISL:1,2010-02-02T09:00:00Z,30.2513,-88.0778,9.48,1111122 
DISL,ioos:station:DISL:DISL:1,2010-02-02T09:30:00Z,30.2513,-88.0778,9.55,1111122 
DISL,ioos:station:DISL:DISL:1,2010-02-02T10:00:00Z,30.2513,-88.0778,9.62,1111122 
DISL,ioos:station:DISL:DISL:1,2010-02-02T10:30:00Z,30.2513,-88.0778,9.73,1111122 
DISL,ioos:station:DISL:DISL:1,2010-02-02T11:00:00Z,30.2513,-88.0778,9.58,1111122 
DISL,ioos:station:DISL:DISL:1,2010-02-02T11:30:00Z,30.2513,-88.0778,9.52,1111122 
DISL,ioos:station:DISL:DISL:1,2010-02-02T12:00:00Z,30.2513,-88.0778,9.57,1111122 
DISL,ioos:station:DISL:DISL:1,2010-02-02T12:30:00Z,30.2513,-88.0778,9.54,1111122 
DISL,ioos:station:DISL:DISL:1,2010-02-02T13:00:00Z,30.2513,-88.0778,9.51,1111122 
DISL,ioos:station:DISL:DISL:1,2010-02-02T13:30:00Z,30.2513,-88.0778,10.08,1111122 
DISL,ioos:station:DISL:DISL:1,2010-02-02T14:00:00Z,30.2513,-88.0778,10.19,1111122 
DISL,ioos:station:DISL:DISL:1,2010-02-02T14:30:00Z,30.2513,-88.0778,10.36,1111122 
DISL,ioos:station:DISL:DISL:1,2010-02-02T15:00:00Z,30.2513,-88.0778,10.12,1111122 
DISL,ioos:station:DISL:DISL:1,2010-02-02T15:30:00Z,30.2513,-88.0778,10.03,1111122 
DISL,ioos:station:DISL:DISL:1,2010-02-02T16:00:00Z,30.2513,-88.0778,10.06,1111122 
DISL,ioos:station:DISL:DISL:1,2010-02-02T16:30:00Z,30.2513,-88.0778,10.38,1111122 
DISL,ioos:station:DISL:DISL:1,2010-02-02T17:00:00Z,30.2513,-88.0778,10.63,1111122 
DISL,ioos:station:DISL:DISL:1,2010-02-02T17:30:00Z,30.2513,-88.0778,12.8,1111122 
DISL,ioos:station:DISL:DISL:1,2010-02-02T18:00:00Z,30.2513,-88.0778,11.91,1111122 
DISL,ioos:station:DISL:DISL:1,2010-02-02T18:30:00Z,30.2513,-88.0778,12.55,1111122 
DISL,ioos:station:DISL:DISL:1,2010-02-02T19:00:00Z,30.2513,-88.0778,13.26,1111122 
DISL,ioos:station:DISL:DISL:1,2010-02-02T19:30:00Z,30.2513,-88.0778,13.91,1111122 
DISL,ioos:station:DISL:DISL:1,2010-02-02T20:00:00Z,30.2513,-88.0778,15.5,1111122 
DISL,ioos:station:DISL:DISL:1,2010-02-02T20:30:00Z,30.2513,-88.0778,14.73,1111122 
DISL,ioos:station:DISL:DISL:1,2010-02-02T21:00:00Z,30.2513,-88.0778,14.97,1111122 
DISL,ioos:station:DISL:DISL:1,2010-02-02T21:30:00Z,30.2513,-88.0778,14.36,1111122 
DISL,ioos:station:DISL:DISL:1,2010-02-02T22:00:00Z,30.2513,-88.0778,14.93,1111122 
DISL,ioos:station:DISL:DISL:1,2010-02-02T22:30:00Z,30.2513,-88.0778,14.89,1111122 
DISL,ioos:station:DISL:DISL:1,2010-02-02T23:00:00Z,30.2513,-88.0778,14.16,1111122 
DISL,ioos:station:DISL:DISL:1,2010-02-02T23:30:00Z,30.2513,-88.0778,13.61,1111122 
DISL,ioos:station:DISL:DISL:1,2010-02-03T00:00:00Z,30.2513,-88.0778,13.16,1111122 
DISL,ioos:station:DISL:DISL:1,2010-02-03T00:30:00Z,30.2513,-88.0778,12.75,1111122 
DISL,ioos:station:DISL:DISL:1,2010-02-03T01:00:00Z,30.2513,-88.0778,12.57,1111122 
DISL,ioos:station:DISL:DISL:1,2010-02-03T01:30:00Z,30.2513,-88.0778,11.69,1111122 
DISL,ioos:station:DISL:DISL:1,2010-02-03T02:00:00Z,30.2513,-88.0778,13.04,1111122 
DISL,ioos:station:DISL:DISL:1,2010-02-03T02:30:00Z,30.2513,-88.0778,12.26,1111122 
DISL,ioos:station:DISL:DISL:1,2010-02-03T03:00:00Z,30.2513,-88.0778,12.38,1111122 
DISL,ioos:station:DISL:DISL:1,2010-02-03T03:30:00Z,30.2513,-88.0778,12.38,1111122 
DISL,ioos:station:DISL:DISL:1,2010-02-03T04:00:00Z,30.2513,-88.0778,12.24,1111122 
DISL,ioos:station:DISL:DISL:1,2010-02-03T04:30:00Z,30.2513,-88.0778,12.39,1111122 
DISL,ioos:station:DISL:DISL:1,2010-02-03T05:00:00Z,30.2513,-88.0778,11.94,1111122 
DISL,ioos:station:DISL:DISL:1,2010-02-03T05:30:00Z,30.2513,-88.0778,11.79,1111122 
DISL,ioos:station:DISL:DISL:1,2010-02-03T06:00:00Z,30.2513,-88.0778,11.59,1111122 
DISL,ioos:station:DISL:DISL:1,2010-02-03T06:30:00Z,30.2513,-88.0778,11.35,1111122 
DISL,ioos:station:DISL:DISL:1,2010-02-03T07:00:00Z,30.2513,-88.0778,11.17,1111122 
DISL,ioos:station:DISL:DISL:1,2010-02-03T07:30:00Z,30.2513,-88.0778,11.03,1111122 
DISL,ioos:station:DISL:DISL:1,2010-02-03T08:00:00Z,30.2513,-88.0778,10.85,1111122 
DISL,ioos:station:DISL:DISL:1,2010-02-03T08:30:00Z,30.2513,-88.0778,10.68,1111122 
DISL,ioos:station:DISL:DISL:1,2010-02-03T09:00:00Z,30.2513,-88.0778,10.47,1111122 
DISL,ioos:station:DISL:DISL:1,2010-02-03T09:30:00Z,30.2513,-88.0778,10.1,1111122 
DISL,ioos:station:DISL:DISL:1,2010-02-03T10:00:00Z,30.2513,-88.0778,9.91,1111122 
DISL,ioos:station:DISL:DISL:1,2010-02-03T10:30:00Z,30.2513,-88.0778,9.66,1111122 
DISL,ioos:station:DISL:DISL:1,2010-02-03T11:00:00Z,30.2513,-88.0778,9.5,1111122 
DISL,ioos:station:DISL:DISL:1,2010-02-03T11:30:00Z,30.2513,-88.0778,9.25,1111122 
DISL,ioos:station:DISL:DISL:1,2010-02-03T12:00:00Z,30.2513,-88.0778,9.05,1111122 
DISL,ioos:station:DISL:DISL:1,2010-02-03T12:30:00Z,30.2513,-88.0778,8.62,1111122 
DISL,ioos:station:DISL:DISL:1,2010-02-03T13:00:00Z,30.2513,-88.0778,8.48,1111122 
DISL,ioos:station:DISL:DISL:1,2010-02-03T13:30:00Z,30.2513,-88.0778,8.43,1111122 
DISL,ioos:station:DISL:DISL:1,2010-02-03T14:00:00Z,30.2513,-88.0778,8.54,1111122 
DISL,ioos:station:DISL:DISL:1,2010-02-03T14:30:00Z,30.2513,-88.0778,8.4,1111122 
DISL,ioos:station:DISL:DISL:1,2010-02-03T15:00:00Z,30.2513,-88.0778,8.38,1111122 
DISL,ioos:station:DISL:DISL:1,2010-02-03T15:30:00Z,30.2513,-88.0778,8.64,1111122 
DISL,ioos:station:DISL:DISL:1,2010-02-03T16:00:00Z,30.2513,-88.0778,9.13,1111122 
DISL,ioos:station:DISL:DISL:1,2010-02-03T16:30:00Z,30.2513,-88.0778,9.61,1111122 
DISL,ioos:station:DISL:DISL:1,2010-02-03T17:00:00Z,30.2513,-88.0778,9.95,1111122 
DISL,ioos:station:DISL:DISL:1,2010-02-03T17:30:00Z,30.2513,-88.0778,10.42,1111122 
DISL,ioos:station:DISL:DISL:1,2010-02-03T18:00:00Z,30.2513,-88.0778,10.76,1111122 
DISL,ioos:station:DISL:DISL:1,2010-02-03T18:30:00Z,30.2513,-88.0778,10.28,1111122 
DISL,ioos:station:DISL:DISL:1,2010-02-03T19:00:00Z,30.2513,-88.0778,10.55,1111122 
DISL,ioos:station:DISL:DISL:1,2010-02-03T19:30:00Z,30.2513,-88.0778,10.86,1111122 
DISL,ioos:station:DISL:DISL:1,2010-02-03T20:00:00Z,30.2513,-88.0778,11.24,1111122 
DISL,ioos:station:DISL:DISL:1,2010-02-03T20:30:00Z,30.2513,-88.0778,11.65,1111122 
DISL,ioos:station:DISL:DISL:1,2010-02-03T21:00:00Z,30.2513,-88.0778,12.51,1111122 
DISL,ioos:station:DISL:DISL:1,2010-02-03T21:30:00Z,30.2513,-88.0778,12.69,1111122 
DISL,ioos:station:DISL:DISL:1,2010-02-03T22:00:00Z,30.2513,-88.0778,12.05,1111122 
DISL,ioos:station:DISL:DISL:1,2010-02-03T22:30:00Z,30.2513,-88.0778,11.95,1111122 
DISL,ioos:station:DISL:DISL:1,2010-02-03T23:00:00Z,30.2513,-88.0778,11.97,1111122 
DISL,ioos:station:DISL:DISL:1,2010-02-03T23:30:00Z,30.2513,-88.0778,11.83,1111122 
DISL,ioos:station:DISL:DISL:1,2010-02-04T00:00:00Z,30.2513,-88.0778,11.74,1111122 
DISL,ioos:station:DISL:DISL:1,2010-02-04T00:30:00Z,30.2513,-88.0778,11.72,1111122 
DISL,ioos:station:DISL:DISL:1,2010-02-04T01:00:00Z,30.2513,-88.0778,11.58,1111122 
DISL,ioos:station:DISL:DISL:1,2010-02-04T01:30:00Z,30.2513,-88.0778,11.6,1111122 
DISL,ioos:station:DISL:DISL:1,2010-02-04T02:00:00Z,30.2513,-88.0778,11.61,1111122 
DISL,ioos:station:DISL:DISL:1,2010-02-04T02:30:00Z,30.2513,-88.0778,11.63,1111122 
DISL,ioos:station:DISL:DISL:1,2010-02-04T03:00:00Z,30.2513,-88.0778,11.73,1111122 
DISL,ioos:station:DISL:DISL:1,2010-02-04T03:30:00Z,30.2513,-88.0778,11.68,1111122 
DISL,ioos:station:DISL:DISL:1,2010-02-04T04:00:00Z,30.2513,-88.0778,11.64,1111122 
DISL,ioos:station:DISL:DISL:1,2010-02-04T04:30:00Z,30.2513,-88.0778,11.57,1111122 
DISL,ioos:station:DISL:DISL:1,2010-02-04T05:00:00Z,30.2513,-88.0778,11.55,1111122 
DISL,ioos:station:DISL:DISL:1,2010-02-04T05:30:00Z,30.2513,-88.0778,11.4,1111122 
DISL,ioos:station:DISL:DISL:1,2010-02-04T06:00:00Z,30.2513,-88.0778,11.4,1111122 
DISL,ioos:station:DISL:DISL:1,2010-02-04T06:30:00Z,30.2513,-88.0778,11.32,1111122 
DISL,ioos:station:DISL:DISL:1,2010-02-04T07:00:00Z,30.2513,-88.0778,11.3,1111122 
DISL,ioos:station:DISL:DISL:1,2010-02-04T07:30:00Z,30.2513,-88.0778,11.26,1111122 
DISL,ioos:station:DISL:DISL:1,2010-02-04T08:00:00Z,30.2513,-88.0778,11.16,1111122 
DISL,ioos:station:DISL:DISL:1,2010-02-04T08:30:00Z,30.2513,-88.0778,11.05,1111122 
DISL,ioos:station:DISL:DISL:1,2010-02-04T09:00:00Z,30.2513,-88.0778,11.3,1111122 
DISL,ioos:station:DISL:DISL:1,2010-02-04T09:30:00Z,30.2513,-88.0778,11.33,1111122 
DISL,ioos:station:DISL:DISL:1,2010-02-04T10:00:00Z,30.2513,-88.0778,11.29,1111122 
DISL,ioos:station:DISL:DISL:1,2010-02-04T10:30:00Z,30.2513,-88.0778,11.45,1111122 
DISL,ioos:station:DISL:DISL:1,2010-02-04T11:00:00Z,30.2513,-88.0778,11.53,1111122 
DISL,ioos:station:DISL:DISL:1,2010-02-04T11:30:00Z,30.2513,-88.0778,11.54,1111122 
DISL,ioos:station:DISL:DISL:1,2010-02-04T12:00:00Z,30.2513,-88.0778,11.37,1111122 
DISL,ioos:station:DISL:DISL:1,2010-02-04T12:30:00Z,30.2513,-88.0778,11.39,1111122 
DISL,ioos:station:DISL:DISL:1,2010-02-04T13:00:00Z,30.2513,-88.0778,11.51,1111122 
DISL,ioos:station:DISL:DISL:1,2010-02-04T13:30:00Z,30.2513,-88.0778,11.32,1111122 
DISL,ioos:station:DISL:DISL:1,2010-02-04T14:00:00Z,30.2513,-88.0778,11.13,1111122 
DISL,ioos:station:DISL:DISL:1,2010-02-04T14:30:00Z,30.2513,-88.0778,11.34,1111122 
DISL,ioos:station:DISL:DISL:1,2010-02-04T15:00:00Z,30.2513,-88.0778,12.64,1111122 
DISL,ioos:station:DISL:DISL:1,2010-02-04T15:30:00Z,30.2513,-88.0778,14.08,1111122 
DISL,ioos:station:DISL:DISL:1,2010-02-04T16:00:00Z,30.2513,-88.0778,14.09,1111122 
DISL,ioos:station:DISL:DISL:1,2010-02-04T16:30:00Z,30.2513,-88.0778,14.17,1111122 
DISL,ioos:station:DISL:DISL:1,2010-02-04T17:00:00Z,30.2513,-88.0778,14.04,1111122 
DISL,ioos:station:DISL:DISL:1,2010-02-04T17:30:00Z,30.2513,-88.0778,13.61,1111122 
DISL,ioos:station:DISL:DISL:1,2010-02-04T18:00:00Z,30.2513,-88.0778,12.85,1111122 
DISL,ioos:station:DISL:DISL:1,2010-02-04T18:30:00Z,30.2513,-88.0778,13.1,1111122 
DISL,ioos:station:DISL:DISL:1,2010-02-04T19:00:00Z,30.2513,-88.0778,13.31,1111122 
DISL,ioos:station:DISL:DISL:1,2010-02-04T19:30:00Z,30.2513,-88.0778,12.91,1111122 
DISL,ioos:station:DISL:DISL:1,2010-02-04T20:00:00Z,30.2513,-88.0778,11.95,1111122 
DISL,ioos:station:DISL:DISL:1,2010-02-04T20:30:00Z,30.2513,-88.0778,12.62,1111122 
DISL,ioos:station:DISL:DISL:1,2010-02-04T21:00:00Z,30.2513,-88.0778,13.03,1111122 
DISL,ioos:station:DISL:DISL:1,2010-02-04T21:30:00Z,30.2513,-88.0778,14.0,1111122 
DISL,ioos:station:DISL:DISL:1,2010-02-04T22:00:00Z,30.2513,-88.0778,14.5,1111122 
DISL,ioos:station:DISL:DISL:1,2010-02-04T22:30:00Z,30.2513,-88.0778,14.84,1111122 
DISL,ioos:station:DISL:DISL:1,2010-02-04T23:00:00Z,30.2513,-88.0778,14.93,1111122 
DISL,ioos:station:DISL:DISL:1,2010-02-04T23:30:00Z,30.2513,-88.0778,15.45,1111122 
DISL,ioos:station:DISL:DISL:1,2010-02-05T00:00:00Z,30.2513,-88.0778,16.13,1111122 
DISL,ioos:station:DISL:DISL:1,2010-02-05T00:30:00Z,30.2513,-88.0778,16.64,1111122 
DISL,ioos:station:DISL:DISL:1,2010-02-05T01:00:00Z,30.2513,-88.0778,16.91,1111122 
DISL,ioos:station:DISL:DISL:1,2010-02-05T01:30:00Z,30.2513,-88.0778,16.9,1111122 
DISL,ioos:station:DISL:DISL:1,2010-02-05T02:00:00Z,30.2513,-88.0778,16.95,1111122 
DISL,ioos:station:DISL:DISL:1,2010-02-05T02:30:00Z,30.2513,-88.0778,17.08,1111122 
DISL,ioos:station:DISL:DISL:1,2010-02-05T03:00:00Z,30.2513,-88.0778,17.16,1111122 
DISL,ioos:station:DISL:DISL:1,2010-02-05T03:30:00Z,30.2513,-88.0778,17.35,1111122 
DISL,ioos:station:DISL:DISL:1,2010-02-05T04:00:00Z,30.2513,-88.0778,17.93,1111122 
DISL,ioos:station:DISL:DISL:1,2010-02-05T04:30:00Z,30.2513,-88.0778,17.21,1111122 
DISL,ioos:station:DISL:DISL:1,2010-02-05T05:00:00Z,30.2513,-88.0778,16.86,1111122 
DISL,ioos:station:DISL:DISL:1,2010-02-05T05:30:00Z,30.2513,-88.0778,16.42,1111122 
DISL,ioos:station:DISL:DISL:1,2010-02-05T06:00:00Z,30.2513,-88.0778,16.4,1111122 
DISL,ioos:station:DISL:DISL:1,2010-02-05T06:30:00Z,30.2513,-88.0778,16.04,1111122 
DISL,ioos:station:DISL:DISL:1,2010-02-05T07:00:00Z,30.2513,-88.0778,16.15,1111122 
DISL,ioos:station:DISL:DISL:1,2010-02-05T07:30:00Z,30.2513,-88.0778,15.42,1111122 
DISL,ioos:station:DISL:DISL:1,2010-02-05T08:00:00Z,30.2513,-88.0778,15.68,1111122 
DISL,ioos:station:DISL:DISL:1,2010-02-05T08:30:00Z,30.2513,-88.0778,15.72,1111122 
DISL,ioos:station:DISL:DISL:1,2010-02-05T09:00:00Z,30.2513,-88.0778,15.41,1111122 
DISL,ioos:station:DISL:DISL:1,2010-02-05T09:30:00Z,30.2513,-88.0778,15.12,1111122 
DISL,ioos:station:DISL:DISL:1,2010-02-05T10:00:00Z,30.2513,-88.0778,14.96,1111122 
DISL,ioos:station:DISL:DISL:1,2010-02-05T10:30:00Z,30.2513,-88.0778,14.71,1111122 
DISL,ioos:station:DISL:DISL:1,2010-02-05T11:00:00Z,30.2513,-88.0778,14.5,1111122 
DISL,ioos:station:DISL:DISL:1,2010-02-05T11:30:00Z,30.2513,-88.0778,13.99,1111122 
DISL,ioos:station:DISL:DISL:1,2010-02-05T12:00:00Z,30.2513,-88.0778,13.97,1111122 
DISL,ioos:station:DISL:DISL:1,2010-02-05T12:30:00Z,30.2513,-88.0778,13.97,1111122 
DISL,ioos:station:DISL:DISL:1,2010-02-05T13:00:00Z,30.2513,-88.0778,13.92,1111122 
DISL,ioos:station:DISL:DISL:1,2010-02-05T13:30:00Z,30.2513,-88.0778,13.8,1111122 
DISL,ioos:station:DISL:DISL:1,2010-02-05T14:00:00Z,30.2513,-88.0778,13.7,1111122 
DISL,ioos:station:DISL:DISL:1,2010-02-05T14:30:00Z,30.2513,-88.0778,13.71,1111122 
DISL,ioos:station:DISL:DISL:1,2010-02-05T15:00:00Z,30.2513,-88.0778,13.31,1111122 
DISL,ioos:station:DISL:DISL:1,2010-02-05T15:30:00Z,30.2513,-88.0778,13.35,1111122 
DISL,ioos:station:DISL:DISL:1,2010-02-05T16:00:00Z,30.2513,-88.0778,13.91,1111122 
DISL,ioos:station:DISL:DISL:1,2010-02-05T16:30:00Z,30.2513,-88.0778,13.87,1111122 
DISL,ioos:station:DISL:DISL:1,2010-02-05T17:00:00Z,30.2513,-88.0778,13.49,1111122 
DISL,ioos:station:DISL:DISL:1,2010-02-05T17:30:00Z,30.2513,-88.0778,13.2,1111122 
DISL,ioos:station:DISL:DISL:1,2010-02-05T18:00:00Z,30.2513,-88.0778,13.36,1111122 
DISL,ioos:station:DISL:DISL:1,2010-02-05T18:30:00Z,30.2513,-88.0778,13.58,1111122 
DISL,ioos:station:DISL:DISL:1,2010-02-05T19:00:00Z,30.2513,-88.0778,13.52,1111122 
DISL,ioos:station:DISL:DISL:1,2010-02-05T19:30:00Z,30.2513,-88.0778,13.86,1111122 
DISL,ioos:station:DISL:DISL:1,2010-02-05T20:00:00Z,30.2513,-88.0778,14.37,1111122 
DISL,ioos:station:DISL:DISL:1,2010-02-05T20:30:00Z,30.2513,-88.0778,14.13,1111122 
DISL,ioos:station:DISL:DISL:1,2010-02-05T21:00:00Z,30.2513,-88.0778,14.04,1111122 
DISL,ioos:station:DISL:DISL:1,2010-02-05T21:30:00Z,30.2513,-88.0778,13.87,1111122 
DISL,ioos:station:DISL:DISL:1,2010-02-05T22:00:00Z,30.2513,-88.0778,13.69,1111122 
DISL,ioos:station:DISL:DISL:1,2010-02-05T22:30:00Z,30.2513,-88.0778,13.71,1111122 
DISL,ioos:station:DISL:DISL:1,2010-02-05T23:00:00Z,30.2513,-88.0778,13.53,1111122 
DISL,ioos:station:DISL:DISL:1,2010-02-05T23:30:00Z,30.2513,-88.0778,13.16,1111122 
DISL,ioos:station:DISL:DISL:1,2010-02-06T00:00:00Z,30.2513,-88.0778,12.98,1111122 
DISL,ioos:station:DISL:DISL:1,2010-02-06T00:30:00Z,30.2513,-88.0778,12.93,1111122 
DISL,ioos:station:DISL:DISL:1,2010-02-06T01:00:00Z,30.2513,-88.0778,13.08,1111122 
DISL,ioos:station:DISL:DISL:1,2010-02-06T01:30:00Z,30.2513,-88.0778,13.32,1111122 
DISL,ioos:station:DISL:DISL:1,2010-02-06T02:00:00Z,30.2513,-88.0778,13.3,1111122 
DISL,ioos:station:DISL:DISL:1,2010-02-06T02:30:00Z,30.2513,-88.0778,13.15,1111122 
DISL,ioos:station:DISL:DISL:1,2010-02-06T03:00:00Z,30.2513,-88.0778,12.97,1111122 
DISL,ioos:station:DISL:DISL:1,2010-02-06T03:30:00Z,30.2513,-88.0778,12.8,1111122 
DISL,ioos:station:DISL:DISL:1,2010-02-06T04:00:00Z,30.2513,-88.0778,12.72,1111122 
DISL,ioos:station:DISL:DISL:1,2010-02-06T04:30:00Z,30.2513,-88.0778,12.37,1111122 
DISL,ioos:station:DISL:DISL:1,2010-02-06T05:00:00Z,30.2513,-88.0778,11.8,1111122 
DISL,ioos:station:DISL:DISL:1,2010-02-06T05:30:00Z,30.2513,-88.0778,10.67,1111122 
DISL,ioos:station:DISL:DISL:1,2010-02-06T06:00:00Z,30.2513,-88.0778,10.79,1111122 
DISL,ioos:station:DISL:DISL:1,2010-02-06T06:30:00Z,30.2513,-88.0778,10.74,1111122 
DISL,ioos:station:DISL:DISL:1,2010-02-06T07:00:00Z,30.2513,-88.0778,10.82,1111122 
DISL,ioos:station:DISL:DISL:1,2010-02-06T07:30:00Z,30.2513,-88.0778,10.47,1111122 
DISL,ioos:station:DISL:DISL:1,2010-02-06T08:00:00Z,30.2513,-88.0778,10.22,1111122 
DISL,ioos:station:DISL:DISL:1,2010-02-06T08:30:00Z,30.2513,-88.0778,10.14,1111122 
DISL,ioos:station:DISL:DISL:1,2010-02-06T09:00:00Z,30.2513,-88.0778,10.04,1111122 
DISL,ioos:station:DISL:DISL:1,2010-02-06T09:30:00Z,30.2513,-88.0778,9.89,1111122 
DISL,ioos:station:DISL:DISL:1,2010-02-06T10:00:00Z,30.2513,-88.0778,9.96,1111122 
DISL,ioos:station:DISL:DISL:1,2010-02-06T10:30:00Z,30.2513,-88.0778,10.24,1111122 
DISL,ioos:station:DISL:DISL:1,2010-02-06T11:00:00Z,30.2513,-88.0778,10.12,1111122 
DISL,ioos:station:DISL:DISL:1,2010-02-06T11:30:00Z,30.2513,-88.0778,10.52,1111122 
DISL,ioos:station:DISL:DISL:1,2010-02-06T12:00:00Z,30.2513,-88.0778,10.71,1111122 
DISL,ioos:station:DISL:DISL:1,2010-02-06T12:30:00Z,30.2513,-88.0778,10.35,1111122 
DISL,ioos:station:DISL:DISL:1,2010-02-06T13:00:00Z,30.2513,-88.0778,10.39,1111122 
DISL,ioos:station:DISL:DISL:1,2010-02-06T13:30:00Z,30.2513,-88.0778,10.31,1111122 
DISL,ioos:station:DISL:DISL:1,2010-02-06T14:00:00Z,30.2513,-88.0778,10.23,1111122 
DISL,ioos:station:DISL:DISL:1,2010-02-06T14:30:00Z,30.2513,-88.0778,10.33,1111122 
DISL,ioos:station:DISL:DISL:1,2010-02-06T15:00:00Z,30.2513,-88.0778,10.18,1111122 
DISL,ioos:station:DISL:DISL:1,2010-02-06T15:30:00Z,30.2513,-88.0778,9.95,1111122 
DISL,ioos:station:DISL:DISL:1,2010-02-06T16:00:00Z,30.2513,-88.0778,10.41,1111122 
DISL,ioos:station:DISL:DISL:1,2010-02-06T16:30:00Z,30.2513,-88.0778,10.45,1111122 
DISL,ioos:station:DISL:DISL:1,2010-02-06T17:00:00Z,30.2513,-88.0778,10.5,1111122 
DISL,ioos:station:DISL:DISL:1,2010-02-06T17:30:00Z,30.2513,-88.0778,10.1,1111122 
DISL,ioos:station:DISL:DISL:1,2010-02-06T18:00:00Z,30.2513,-88.0778,10.56,1111122 
DISL,ioos:station:DISL:DISL:1,2010-02-06T18:30:00Z,30.2513,-88.0778,10.68,1111122 
DISL,ioos:station:DISL:DISL:1,2010-02-06T19:00:00Z,30.2513,-88.0778,10.94,1111122 
DISL,ioos:station:DISL:DISL:1,2010-02-06T19:30:00Z,30.2513,-88.0778,11.25,1111122 
DISL,ioos:station:DISL:DISL:1,2010-02-06T20:00:00Z,30.2513,-88.0778,10.98,1111122 
DISL,ioos:station:DISL:DISL:1,2010-02-06T20:30:00Z,30.2513,-88.0778,10.54,1111122 
DISL,ioos:station:DISL:DISL:1,2010-02-06T21:00:00Z,30.2513,-88.0778,10.11,1111122 
DISL,ioos:station:DISL:DISL:1,2010-02-06T21:30:00Z,30.2513,-88.0778,9.44,1111122 
DISL,ioos:station:DISL:DISL:1,2010-02-06T22:00:00Z,30.2513,-88.0778,8.69,1111122 
DISL,ioos:station:DISL:DISL:1,2010-02-06T22:30:00Z,30.2513,-88.0778,8.15,1111122 
DISL,ioos:station:DISL:DISL:1,2010-02-06T23:00:00Z,30.2513,-88.0778,7.86,1111122 
DISL,ioos:station:DISL:DISL:1,2010-02-06T23:30:00Z,30.2513,-88.0778,7.61,1111122 
DISL,ioos:station:DISL:DISL:1,2010-02-07T00:00:00Z,30.2513,-88.0778,7.59,1111122 